Flag for Germany Weather past 2 weeks in Koblenz, Rhineland-Palatinate, Germany

Now
57 °F

Refreshingly cool.


Feels Like: 57 °F
Forecast: 48 / 65 °F
Wind: 5 mph from West

Location: Buechel

Current Time: Sep 3, 2015 at 8:15:54 PM

Latest Report: Sep 3, 2015 at 7:20 PM


Visibility: N/A

Pressure: 29.95 "Hg

Humidity: 59%

Dew point: 43 °F

Location of KoblenzLocation

Historic Weather in Koblenz — Graph

°F

Koblenz temperature yesterday

Maximum temperature yesterday: 63 °F (at 3:20 PM)
Minimum temperature yesterday: 48 °F (at 5:20 AM)
Average temperature yesterday: 54 °F

Past Weeks' High & Low Weather Summary

 TemperatureHumidityPressure
High84 °F (Aug 30, 2:20 PM)100% (Aug 23, 8:20 PM)30.30 "Hg (Aug 23, 8:20 PM)
Low48 °F (Sep 2, 5:20 AM)29% (Aug 22, 6:20 PM)29.65 "Hg (Aug 24, 12:20 PM)
Average63 °F72%30.01 "Hg
* Reported Aug 19 6:20 PM — Sep 3 6:20 PM, Koblenz, Weather by CustomWeather, © 2015

Note: Actual official high and low records may vary slightly from our data, if they occured in-between our weather recording intervals... More about our weather records

Advertising

Koblenz weather history for previous 24 hours

 ConditionsComfort  
Time TempWeatherWind HumidityBarometerVisibility
6:20 PM
Thu, Sep 3
61 °FRefreshingly cool.10 mph48%29.95 "HgN/A
5:20 PM61 °FScattered clouds.9 mph48%29.95 "HgN/A
4:20 PM61 °FScattered clouds.9 mph48%29.95 "HgN/A
3:20 PM63 °FScattered clouds.10 mph49%29.95 "HgN/A
2:20 PM61 °FScattered clouds.13 mph48%29.95 "HgN/A
1:20 PM59 °FScattered clouds.8 mph48%29.95 "HgN/A
12:20 PM59 °FScattered clouds.9 mph68%29.98 "HgN/A
11:20 AM57 °FScattered clouds.6 mph72%29.98 "Hg6 mi
10:20 AM55 °FScattered clouds.6 mph82%29.98 "Hg5 mi
9:20 AM54 °FScattered clouds.3 mph77%29.98 "Hg4 mi
8:20 AM50 °FPartly sunny.5 mph94%29.98 "Hg4 mi
7:20 AM50 °FPassing clouds.3 mph94%29.98 "Hg4 mi
6:20 AM48 °FPassing clouds.5 mph100%29.98 "Hg4 mi
5:20 AM48 °FPartly cloudy.5 mph100%29.98 "Hg4 mi
4:20 AM50 °FCool.3 mph88%29.98 "HgN/A
3:20 AM50 °FCool.1 mph94%29.98 "HgN/A
2:20 AM50 °FCool.5 mph88%30.01 "Hg4 mi
1:20 AM52 °FCool.5 mph82%30.01 "Hg4 mi
12:20 AM52 °FCool.5 mph88%30.01 "Hg5 mi
11:20 PM
Wed, Sep 2
54 °FCool.5 mph88%30.01 "Hg5 mi
11:00 PM54 °FPassing clouds.5 mph88%30.01 "HgN/A
10:20 PM54 °FPassing clouds.6 mph82%30.01 "HgN/A
9:20 PM55 °FPassing clouds.6 mph77%30.01 "HgN/A
8:20 PM57 °FScattered clouds.5 mph67%30.01 "HgN/A
Weather by CustomWeather, © 2015

See weather overviewHow to use our weather pages